Content
SEND FEEDBACK

Daily
Averages
Monthly
Summary
United States of America

RAPID CITY, SOUTH DAKOTA


Home > North America > United States > South Dakota
Elevation: 3162 feet     Latitude: 44 03N     Longitude: 103 04W

WEATHER
 
SELECT A DAY
Number of Records: 204,324;   Date Range: 1/1/95 - 11/25/14
 
SHARE

PRINT THIS DATA

[ ← Previous Day ]
WEATHER ALMANAC - SEPTEMBER 8, 2013
[ Next Day → ]
[ °C ]   °F
Weather ElementAverageHighLow
Temperature70.1 °F84 °F (3:52 pm)62.6 °F (9:05 am)
Dewpoint62.4 °F64.4 °F (4:16 am)60.1 °F (6:52 am)
Humidity77.5 %94 % (9:05 am)49 % (3:52 pm)
Barometer29.90 in30.02 in (4:59 am)29.75 in (11:52 pm)
Wind Speed9.1 mph20.7 mph (8:52 pm)
Wind Gust51.8 mph (8:52 pm)
Weather ElementAverage
Visibility9.1 mi
Wind DirectionSSE (143.3 °)

Weather ElementTotal
Precipitation0.97 in
Cooling Degree Days8.3 (Base 65)
Growing Degree Days23.3 (Base 50)
Averaged from 42 records on September 8, 2013
WEATHER CONDITIONS BREAKOUT
WIND DIRECTION BREAKOUT
WEATHER BY HOUR - SEPTEMBER 8, 2013
[ °C ]   °F
Local TimeTemperatureDewpointHumidityBarometerVisibilityWind DirectionWind SpeedGust SpeedPrecipitationEventsConditions
1:52 AM73.0 °F62.1 °F68 %29.87 in10.0 miEast (90°)12.7 mphClear
2:52 AM71.1 °F61.0 °F70 %29.87 in10.0 miEast (90°)16.1 mphClear
3:01 AM71.6 °F60.8 °F69 %29.99 in10.0 miEast (90°)11.5 mph20.7 mphThunderstormPartly Cloudy
3:26 AM71.6 °F62.6 °F73 %29.99 in10.0 miEast (90°)12.7 mphScattered Clouds
3:52 AM71.1 °F63.0 °F75 %29.90 in10.0 miEast (80°)9.2 mphMostly Cloudy
4:16 AM71.6 °F64.4 °F78 %30.01 in10.0 miENE (60°)12.7 mphOvercast
4:34 AM69.8 °F64.4 °F83 %30.01 in10.0 miENE (60°)12.7 mphOvercast
4:52 AM68.0 °F64.0 °F87 %29.91 in10.0 miNE (50°)16.1 mph23.0 mphOvercast
4:59 AM68.0 °F64.4 °F88 %30.02 in10.0 miNE (50°)12.7 mphOvercast
5:07 AM68.0 °F64.4 °F88 %30.02 in10.0 miNE (50°)11.5 mph18.4 mphOvercast
5:52 AM66.0 °F61.0 °F84 %29.91 in10.0 miENE (70°)15.0 mphOvercast
6:52 AM64.9 °F60.1 °F84 %29.93 in10.0 miEast (80°)11.5 mphOvercast
7:52 AM66.0 °F61.0 °F84 %29.95 in10.0 miNNE (30°)9.2 mphOvercast
8:23 AM66.2 °F60.8 °F83 %30.02 in10.0 miNNE (20°)9.2 mphOvercast
8:52 AM64.0 °F61.0 °F90 %29.95 in10.0 miNorth (350°)9.2 mphOvercast
9:05 AM62.6 °F60.8 °F94 %30.02 in7.0 miNW (320°)8.1 mph0.00 inRainLight Rain
9:52 AM64.0 °F62.1 °F93 %29.95 in9.0 miNW (310°)4.6 mph0.01 inOvercast
10:52 AM66.0 °F63.0 °F90 %29.93 in10.0 miNW (310°)4.6 mph0.00 inOvercast
11:50 AM69.8 °F62.6 °F78 %29.97 in10.0 miCalmOvercast
11:52 AM70.0 °F63.0 °F78 %29.90 in10.0 miCalmOvercast
12:27 PM73.4 °F62.6 °F69 %29.96 in10.0 miVariable4.6 mphMostly Cloudy
12:35 PM73.4 °F62.6 °F69 %29.95 in10.0 miVariable5.8 mphPartly Cloudy
12:52 PM75.9 °F64.0 °F67 %29.87 in10.0 miVariable4.6 mphPartly Cloudy
1:52 PM78.1 °F63.0 °F60 %29.84 in10.0 miVariable5.8 mphPartly Cloudy
2:52 PM81.0 °F63.0 °F54 %29.81 in10.0 miCalmClear
3:52 PM84.0 °F63.0 °F49 %29.78 in10.0 miENE (70°)8.1 mphScattered Clouds
4:43 PM80.6 °F62.6 °F54 %29.87 in10.0 miEast (80°)9.2 mphThunderstormScattered Clouds
4:52 PM81.0 °F63.0 °F54 %29.78 in10.0 miENE (70°)9.2 mphThunderstormScattered Clouds
5:47 PM75.2 °F62.6 °F65 %29.85 in10.0 miNNE (20°)6.9 mphMostly Cloudy
5:52 PM75.9 °F63.0 °F64 %29.78 in10.0 miNorth (360°)5.8 mphScattered Clouds
6:52 PM72.0 °F64.0 °F76 %29.78 in10.0 miNNW (330°)8.1 mphClear
7:52 PM70.0 °F64.0 °F81 %29.77 in10.0 miNorth (350°)8.1 mphClear
8:38 PM71.6 °F64.4 °F78 %29.89 in10.0 miWest (270°)9.2 mph0.00 inRain-ThunderstormLight Rain
8:52 PM66.0 °F61.0 °F84 %29.86 in2.5 miWest (260°)20.7 mph51.8 mph0.06 inRain-ThunderstormHeavy Thunderstorms and Rain
8:55 PM64.4 °F60.8 °F88 %29.89 in1.8 miWest (270°)18.4 mph47.2 mph0.06 inRain-ThunderstormHeavy Thunderstorms and Rain
9:03 PM64.4 °F60.8 °F88 %29.88 in2.0 miWNW (300°)11.5 mph24.2 mph0.19 inRain-ThunderstormHeavy Thunderstorms and Rain
9:12 PM64.4 °F60.8 °F88 %29.89 in6.0 miESE (120°)9.2 mph18.4 mph0.22 inRain-ThunderstormLight Thunderstorms and Rain
9:52 PM66.9 °F61.0 °F81 %29.83 in10.0 miWNW (300°)12.7 mph23.0 mph0.26 inRain-ThunderstormLight Thunderstorms and Rain
10:03 PM66.2 °F60.8 °F83 %29.88 in7.0 miNW (310°)9.2 mph0.02 inRain-ThunderstormThunderstorms and Rain
10:24 PM66.2 °F62.6 °F88 %29.86 in7.0 miNorth (350°)4.6 mph0.06 inRainLight Rain
10:52 PM64.9 °F61.0 °F87 %29.78 in10.0 miNorth (360°)9.2 mph0.08 inRainLight Rain
11:52 PM64.9 °F63.0 °F93 %29.75 in10.0 miCalm0.01 inRainLight Rain
Hourly data recorded from KRAP, located miles away from Rapid City, South Dakota







STORIES FROM OUR PARTNERS